Location: Unspecified
(0.0000°N, 0.0000°E)
Time: 03:18:19
(UTC+00:00)

CZ-6A DEB - Pass Details

Date: 20 October 2025
Orbit: 818 x 870 km, 98.8° (Epoch: 17 November)

Event Time Altitude Azimuth Distance (km) Brightness Sun altitude
Rises 04:53:51 0° 38° (NE) 3,405 ? -12.5°
Reaches altitude 10° 04:56:42 10° 52° (NE) 2,463 ? -11.8°
Maximum altitude 05:00:56 23° 103° (ESE) 1,705 ? -10.8°
Drops below altitude 10° 05:05:07 10° 154° (SSE) 2,443 ? -9.8°
Sets 05:07:55 0° 168° (SSE) 3,371 ? -9.1°
